CSTCW SAWH-SCRM

Flight info

Callsign CSTCW
Flight time N/A
Altitude 7000
Route D093N DCT KRILL DCT PAMES DCT VUDOR
Aircraft BE58/L-SDFGRY/C

Departure

Time 2026-04-30 13:59
Airport Ushuaia - Malvinas Argentinas International Airport (SAWH)

Arrival

Time N/A
Airport Teniente Rodolfo Marsh Martin Airport (SCRM)
Time Latitude Longitude Altitude Speed Heading
2026-04-30 13:50 -54.83937 -68.30767 77 ft 0 kts 359°
2026-04-30 13:53 -54.83938 -68.30736 77 ft 3 kts 186°
2026-04-30 13:53 -54.83971 -68.30760 75 ft 9 kts 207°
2026-04-30 13:54 -54.84038 -68.30811 77 ft 10 kts 172°
2026-04-30 13:54 -54.84103 -68.30791 77 ft 9 kts 139°
2026-04-30 13:54 -54.84149 -68.30658 76 ft 14 kts 160°
2026-04-30 13:54 -54.84211 -68.30715 77 ft 8 kts 267°
2026-04-30 13:55 -54.84214 -68.30795 77 ft 5 kts 264°
2026-04-30 13:55 -54.84221 -68.30890 77 ft 13 kts 261°
2026-04-30 13:55 -54.84252 -68.30968 72 ft 6 kts 175°
2026-04-30 13:55 -54.84289 -68.30963 74 ft 5 kts 176°
2026-04-30 13:56 -54.84320 -68.30960 78 ft 6 kts 177°
2026-04-30 13:56 -54.84372 -68.30971 79 ft 10 kts 221°
2026-04-30 13:56 -54.84390 -68.31100 73 ft 14 kts 266°
2026-04-30 13:56 -54.84401 -68.31283 63 ft 17 kts 264°
2026-04-30 13:57 -54.84413 -68.31516 46 ft 11 kts 281°
2026-04-30 13:57 -54.84400 -68.31476 48 ft 10 kts 110°
2026-04-30 13:57 -54.84402 -68.31426 48 ft 0 kts 86°
2026-04-30 13:58 -54.84396 -68.31257 63 ft 48 kts 84°
2026-04-30 13:58 -54.84363 -68.30296 77 ft 107 kts 88°
2026-04-30 13:59 -54.84272 -68.28875 193 ft 125 kts 80°
2026-04-30 13:59 -54.84024 -68.27455 447 ft 121 kts 78°
2026-04-30 13:59 -54.84007 -68.25997 699 ft 120 kts 101°
2026-04-30 13:59 -54.84277 -68.24675 956 ft 115 kts 129°
2026-04-30 14:00 -54.84728 -68.23560 1168 ft 115 kts 120°
2026-04-30 14:00 -54.85149 -68.20651 1514 ft 130 kts 103°
2026-04-30 14:00 -54.85308 -68.19102 1794 ft 126 kts 111°
2026-04-30 14:01 -54.85558 -68.17687 2121 ft 122 kts 110°
2026-04-30 14:01 -54.85749 -68.16221 2363 ft 124 kts 105°
2026-04-30 14:01 -54.85971 -68.14810 2670 ft 119 kts 111°
2026-04-30 14:01 -54.86210 -68.13457 2901 ft 119 kts 109°
2026-04-30 14:02 -54.86413 -68.12053 3106 ft 120 kts 108°
2026-04-30 14:02 -54.86570 -68.10625 3329 ft 121 kts 99°
2026-04-30 14:02 -54.86751 -68.09203 3500 ft 121 kts 112°
2026-04-30 14:02 -54.87002 -68.07828 3753 ft 118 kts 112°
2026-04-30 14:03 -54.87221 -68.06448 3937 ft 121 kts 108°
2026-04-30 14:03 -54.87465 -68.05065 4127 ft 119 kts 115°
2026-04-30 14:03 -54.87667 -68.03662 4305 ft 121 kts 108°
2026-04-30 14:03 -54.87840 -68.02230 4471 ft 121 kts 109°
2026-04-30 14:04 -54.88033 -68.00802 4649 ft 121 kts 109°
2026-04-30 14:04 -54.88245 -67.99408 4822 ft 121 kts 111°
2026-04-30 14:04 -54.88467 -67.97998 5007 ft 120 kts 113°
2026-04-30 14:04 -54.88680 -67.96582 5170 ft 122 kts 109°
2026-04-30 14:05 -54.88900 -67.95152 5316 ft 123 kts 112°
2026-04-30 14:05 -54.89115 -67.93715 5494 ft 122 kts 111°
2026-04-30 14:05 -54.89274 -67.92251 5655 ft 124 kts 106°
2026-04-30 14:05 -54.89544 -67.90846 5768 ft 123 kts 118°
2026-04-30 14:06 -54.89968 -67.89611 5901 ft 119 kts 141°
2026-04-30 14:06 -54.91286 -67.87978 6342 ft 113 kts 156°
2026-04-30 14:07 -54.92693 -67.86645 6712 ft 117 kts 157°
2026-04-30 14:07 -54.93411 -67.85999 6924 ft 116 kts 158°
2026-04-30 14:07 -54.94163 -67.85344 7004 ft 128 kts 156°
2026-04-30 14:08 -54.95871 -67.83748 7020 ft 147 kts 155°
2026-04-30 14:08 -54.96782 -67.82900 7014 ft 152 kts 155°
2026-04-30 14:08 -54.98733 -67.81079 6781 ft 163 kts 155°
2026-04-30 14:09 -54.99741 -67.80137 6659 ft 165 kts 155°
2026-04-30 14:09 -55.00756 -67.79190 6538 ft 165 kts 155°
2026-04-30 14:09 -55.02821 -67.77253 6309 ft 168 kts 154°
2026-04-30 14:10 -55.03832 -67.76302 6314 ft 163 kts 155°
2026-04-30 14:10 -55.04834 -67.75366 6304 ft 164 kts 154°
2026-04-30 14:10 -55.05831 -67.74425 6300 ft 162 kts 155°
2026-04-30 14:10 -55.06819 -67.73497 6296 ft 160 kts 156°
2026-04-30 14:11 -55.07779 -67.72596 6298 ft 157 kts 156°
2026-04-30 14:11 -55.08742 -67.71693 6295 ft 156 kts 156°
2026-04-30 14:11 -55.09698 -67.70793 6297 ft 156 kts 156°
2026-04-30 14:11 -55.10657 -67.69893 6293 ft 153 kts 157°
2026-04-30 14:12 -55.11564 -67.69061 6294 ft 149 kts 155°
2026-04-30 14:12 -55.12481 -67.68171 6293 ft 151 kts 156°
2026-04-30 14:12 -55.13403 -67.67300 6299 ft 153 kts 156°
2026-04-30 14:12 -55.14345 -67.66414 6299 ft 154 kts 156°
2026-04-30 14:13 -55.15294 -67.65520 6302 ft 155 kts 156°
2026-04-30 14:13 -55.16244 -67.64624 6303 ft 155 kts 156°
2026-04-30 14:13 -55.17198 -67.63723 6305 ft 156 kts 156°
2026-04-30 14:13 -55.18154 -67.62820 6305 ft 156 kts 156°
2026-04-30 14:14 -55.19108 -67.61918 6306 ft 156 kts 156°
2026-04-30 14:14 -55.20066 -67.61011 6309 ft 156 kts 156°
2026-04-30 14:14 -55.21025 -67.60104 6308 ft 157 kts 156°
2026-04-30 14:14 -55.21985 -67.59194 6308 ft 157 kts 156°
2026-04-30 14:15 -55.22945 -67.58285 6310 ft 156 kts 156°
2026-04-30 14:15 -55.23902 -67.57378 6310 ft 156 kts 156°
2026-04-30 14:15 -55.24845 -67.56483 6310 ft 156 kts 156°
2026-04-30 14:15 -55.25812 -67.55565 6310 ft 156 kts 156°
2026-04-30 14:16 -55.26754 -67.54671 6310 ft 156 kts 156°
2026-04-30 14:16 -55.27708 -67.53763 6309 ft 156 kts 156°
2026-04-30 14:16 -55.28661 -67.52857 6310 ft 155 kts 156°
2026-04-30 14:16 -55.29609 -67.51956 6311 ft 155 kts 156°
2026-04-30 14:17 -55.30555 -67.51054 6314 ft 155 kts 156°
2026-04-30 14:17 -55.31503 -67.50152 6314 ft 155 kts 156°
2026-04-30 14:17 -55.32454 -67.49246 6314 ft 155 kts 156°
2026-04-30 14:17 -55.33406 -67.48338 6314 ft 156 kts 156°
2026-04-30 14:18 -55.34353 -67.47436 6314 ft 156 kts 155°
2026-04-30 14:18 -55.35297 -67.46534 6315 ft 155 kts 156°
2026-04-30 14:18 -55.37204 -67.44713 6315 ft 155 kts 156°
2026-04-30 14:19 -55.39100 -67.42900 6315 ft 156 kts 156°
2026-04-30 14:19 -55.40052 -67.41989 6315 ft 156 kts 156°
2026-04-30 14:19 -55.41006 -67.41075 6315 ft 156 kts 156°
2026-04-30 14:20 -55.41946 -67.40175 6315 ft 156 kts 155°
2026-04-30 14:20 -55.42899 -67.39260 6318 ft 156 kts 155°
2026-04-30 14:20 -55.44808 -67.37429 6316 ft 156 kts 156°
2026-04-30 14:21 -55.45762 -67.36513 6314 ft 156 kts 156°
2026-04-30 14:21 -55.46707 -67.35605 6314 ft 156 kts 155°
2026-04-30 14:21 -55.48612 -67.33773 6317 ft 156 kts 156°
2026-04-30 14:22 -55.49569 -67.32852 6313 ft 156 kts 155°
2026-04-30 14:22 -55.51462 -67.31028 6314 ft 155 kts 155°
2026-04-30 14:22 -55.52405 -67.30121 6315 ft 156 kts 155°
2026-04-30 14:23 -55.54310 -67.28282 6318 ft 155 kts 156°
2026-04-30 14:23 -55.56193 -67.26463 6316 ft 154 kts 156°
2026-04-30 14:24 -55.58066 -67.24652 6312 ft 154 kts 156°
2026-04-30 14:24 -55.59008 -67.23741 6313 ft 154 kts 156°
2026-04-30 14:25 -55.60876 -67.21931 6312 ft 154 kts 156°
2026-04-30 14:25 -55.62753 -67.20111 6313 ft 154 kts 156°
2026-04-30 14:26 -55.64637 -67.18283 6313 ft 154 kts 156°
2026-04-30 14:26 -55.65580 -67.17366 6312 ft 154 kts 156°
2026-04-30 14:26 -55.67447 -67.15551 6309 ft 153 kts 156°
2026-04-30 14:27 -55.68385 -67.14639 6311 ft 153 kts 156°
2026-04-30 14:27 -55.69327 -67.13722 6310 ft 154 kts 156°
2026-04-30 14:27 -55.70265 -67.12808 6310 ft 154 kts 156°
2026-04-30 14:28 -55.72138 -67.10982 6305 ft 154 kts 156°
2026-04-30 14:28 -55.73079 -67.10063 6306 ft 154 kts 156°
2026-04-30 14:28 -55.74021 -67.09145 6306 ft 154 kts 156°
2026-04-30 14:28 -55.74949 -67.08238 6306 ft 154 kts 156°
2026-04-30 14:29 -55.76826 -67.06403 6316 ft 154 kts 156°
2026-04-30 14:29 -55.78377 -67.04884 6313 ft 152 kts 157°
2026-04-30 14:30 -55.80865 -67.00763 6308 ft 172 kts 98°
2026-04-30 14:31 -55.79895 -66.96709 6251 ft 179 kts 90°
2026-04-30 14:31 -55.80846 -66.93466 6325 ft 150 kts 152°
2026-04-30 14:31 -55.81757 -66.92434 6210 ft 155 kts 155°
2026-04-30 14:32 -55.83567 -66.90704 6369 ft 148 kts 159°
2026-04-30 14:32 -55.84498 -66.89858 6332 ft 151 kts 158°
2026-04-30 14:32 -55.85418 -66.89007 6358 ft 147 kts 165°
2026-04-30 14:33 -55.86409 -66.88917 6323 ft 146 kts 185°
2026-04-30 14:33 -55.88442 -66.89027 6317 ft 146 kts 184°
2026-04-30 14:33 -55.89459 -66.89074 6317 ft 146 kts 184°
2026-04-30 14:34 -55.90473 -66.89127 6317 ft 146 kts 184°
2026-04-30 14:34 -55.91487 -66.89061 6316 ft 147 kts 175°
2026-04-30 14:34 -55.92475 -66.88550 6314 ft 150 kts 161°
2026-04-30 14:34 -55.93401 -66.87725 6314 ft 151 kts 158°
2026-04-30 14:35 -55.94937 -66.86234 6314 ft 151 kts 157°
2026-04-30 14:35 -55.96173 -66.85014 6311 ft 151 kts 157°
2026-04-30 14:35 -55.97084 -66.84117 6311 ft 151 kts 157°
2026-04-30 14:36 -55.98010 -66.83203 6312 ft 151 kts 157°
2026-04-30 14:36 -55.98934 -66.82290 6312 ft 152 kts 157°
2026-04-30 14:36 -55.99860 -66.81376 6312 ft 152 kts 157°
2026-04-30 14:36 -56.00775 -66.80471 6312 ft 151 kts 157°
2026-04-30 14:37 -56.01696 -66.79560 6318 ft 150 kts 157°
2026-04-30 14:37 -56.02608 -66.78658 6316 ft 149 kts 157°
2026-04-30 14:37 -56.03506 -66.77768 6316 ft 149 kts 157°
2026-04-30 14:37 -56.04415 -66.76868 6316 ft 148 kts 157°
2026-04-30 14:38 -56.05318 -66.75973 6307 ft 148 kts 157°
2026-04-30 14:38 -56.06220 -66.75078 6307 ft 148 kts 157°
2026-04-30 14:38 -56.07111 -66.74195 6307 ft 148 kts 157°
2026-04-30 14:38 -56.08014 -66.73299 6306 ft 148 kts 158°
2026-04-30 14:39 -56.08916 -66.72404 6306 ft 148 kts 157°
2026-04-30 14:39 -56.09821 -66.71505 6307 ft 149 kts 157°
2026-04-30 14:39 -56.10725 -66.70605 6306 ft 149 kts 157°
2026-04-30 14:40 -56.12530 -66.68809 6306 ft 148 kts 157°
2026-04-30 14:40 -56.13432 -66.67909 6307 ft 148 kts 157°
2026-04-30 14:40 -56.14333 -66.67013 6306 ft 148 kts 157°
2026-04-30 14:40 -56.15233 -66.66115 6300 ft 148 kts 158°
2026-04-30 14:41 -56.16133 -66.65218 6301 ft 148 kts 157°
2026-04-30 14:41 -56.17037 -66.64316 6302 ft 149 kts 157°
2026-04-30 14:41 -56.17941 -66.63413 6301 ft 149 kts 157°
2026-04-30 14:41 -56.18844 -66.62510 6301 ft 149 kts 157°
2026-04-30 14:42 -56.19748 -66.61608 6304 ft 148 kts 157°
2026-04-30 14:42 -56.20633 -66.60721 6304 ft 147 kts 157°
2026-04-30 14:42 -56.21532 -66.59823 6303 ft 148 kts 157°
2026-04-30 14:42 -56.22428 -66.58926 6303 ft 147 kts 157°
2026-04-30 14:43 -56.23326 -66.58026 6297 ft 148 kts 157°
2026-04-30 14:43 -56.24225 -66.57124 6311 ft 148 kts 156°
2026-04-30 14:43 -56.25122 -66.56225 6305 ft 147 kts 156°
2026-04-30 14:43 -56.26017 -66.55327 6305 ft 146 kts 157°
2026-04-30 14:44 -56.26903 -66.54436 6306 ft 146 kts 157°
2026-04-30 14:44 -56.27786 -66.53550 6304 ft 145 kts 156°
2026-04-30 14:44 -56.28659 -66.52674 6305 ft 146 kts 156°
2026-04-30 14:44 -56.29544 -66.51783 6304 ft 146 kts 156°
2026-04-30 14:45 -56.30432 -66.50890 6302 ft 146 kts 156°
2026-04-30 14:45 -56.31320 -66.49996 6303 ft 146 kts 156°
2026-04-30 14:45 -56.31917 -66.49395 6305 ft 145 kts 157°
2026-04-30 14:45 -56.32802 -66.48503 6302 ft 146 kts 157°
2026-04-30 14:46 -56.33684 -66.47613 6296 ft 145 kts 156°
2026-04-30 14:46 -56.34564 -66.46727 6299 ft 145 kts 157°
2026-04-30 14:46 -56.35448 -66.45834 6297 ft 145 kts 157°
2026-04-30 14:46 -56.36329 -66.44945 6296 ft 145 kts 156°
2026-04-30 14:47 -56.37213 -66.44051 6294 ft 146 kts 156°
2026-04-30 14:47 -56.38100 -66.43156 6293 ft 146 kts 157°
2026-04-30 14:47 -56.38985 -66.42259 6293 ft 146 kts 156°
2026-04-30 14:47 -56.39872 -66.41362 6294 ft 146 kts 157°
2026-04-30 14:48 -56.40745 -66.40477 6298 ft 145 kts 157°
2026-04-30 14:48 -56.41627 -66.39585 6298 ft 145 kts 156°
2026-04-30 14:48 -56.42512 -66.38688 6296 ft 146 kts 157°
2026-04-30 14:48 -56.43395 -66.37793 6293 ft 146 kts 156°
2026-04-30 14:49 -56.44284 -66.36891 6296 ft 146 kts 156°
2026-04-30 14:49 -56.45174 -66.35987 6297 ft 146 kts 157°
2026-04-30 14:49 -56.46061 -66.35086 6297 ft 146 kts 157°
2026-04-30 14:49 -56.46946 -66.34186 6296 ft 146 kts 157°
2026-04-30 14:50 -56.48707 -66.32396 6291 ft 146 kts 156°
2026-04-30 14:50 -56.49591 -66.31495 6291 ft 145 kts 157°
2026-04-30 14:51 -56.51363 -66.29691 6293 ft 146 kts 156°
2026-04-30 14:51 -56.52238 -66.28798 6294 ft 146 kts 156°
2026-04-30 14:51 -56.54004 -66.26996 6287 ft 145 kts 156°
2026-04-30 14:52 -56.54886 -66.26096 6290 ft 145 kts 156°
2026-04-30 14:52 -56.56652 -66.24290 6292 ft 146 kts 157°
2026-04-30 14:52 -56.57540 -66.23384 6289 ft 147 kts 156°
2026-04-30 14:53 -56.59314 -66.21565 6284 ft 146 kts 156°
2026-04-30 14:53 -56.60203 -66.20657 6287 ft 146 kts 157°
2026-04-30 14:54 -56.61966 -66.18848 6286 ft 146 kts 156°
2026-04-30 14:54 -56.63730 -66.17038 6289 ft 146 kts 156°
2026-04-30 14:55 -56.65499 -66.15219 6288 ft 146 kts 156°
2026-04-30 14:55 -56.66383 -66.14311 6289 ft 146 kts 156°
2026-04-30 14:55 -56.68135 -66.12507 6291 ft 145 kts 156°
2026-04-30 14:56 -56.69896 -66.10693 6289 ft 146 kts 157°
2026-04-30 14:56 -56.71674 -66.08858 6299 ft 147 kts 156°
2026-04-30 14:57 -56.72560 -66.07943 6292 ft 146 kts 156°
2026-04-30 14:57 -56.74315 -66.06130 6290 ft 144 kts 156°
2026-04-30 14:58 -56.76061 -66.04325 6290 ft 144 kts 156°
2026-04-30 14:58 -56.76920 -66.03436 6289 ft 144 kts 156°
2026-04-30 14:58 -56.78673 -66.01620 6288 ft 145 kts 156°
2026-04-30 14:59 -56.80420 -65.99807 6285 ft 144 kts 156°
2026-04-30 15:00 -56.83019 -65.97109 6280 ft 143 kts 157°
2026-04-30 15:00 -56.84745 -65.95313 6272 ft 144 kts 156°
2026-04-30 15:01 -56.86485 -65.93503 6280 ft 144 kts 156°
2026-04-30 15:01 -56.87351 -65.92600 6281 ft 143 kts 156°
2026-04-30 15:01 -56.89088 -65.90790 6281 ft 144 kts 156°
2026-04-30 15:02 -56.89958 -65.89881 6281 ft 144 kts 156°
2026-04-30 15:02 -56.90827 -65.88974 6278 ft 145 kts 156°
2026-04-30 15:03 -56.93444 -65.86239 6278 ft 144 kts 156°
2026-04-30 15:03 -56.95188 -65.84413 6270 ft 144 kts 156°
2026-04-30 15:04 -56.96939 -65.82578 6280 ft 145 kts 156°
2026-04-30 15:04 -56.99546 -65.79842 6283 ft 144 kts 156°
2026-04-30 15:05 -57.02133 -65.77124 6276 ft 143 kts 156°
2026-04-30 15:06 -57.03858 -65.75310 6274 ft 143 kts 156°
2026-04-30 15:06 -57.05585 -65.73489 6276 ft 143 kts 156°
2026-04-30 15:07 -57.07316 -65.71665 6274 ft 143 kts 157°
2026-04-30 15:07 -57.09030 -65.69854 6272 ft 143 kts 156°
2026-04-30 15:08 -57.10758 -65.68028 6276 ft 144 kts 156°
2026-04-30 15:08 -57.13352 -65.65282 6269 ft 143 kts 156°
2026-04-30 15:09 -57.15072 -65.63459 6268 ft 142 kts 156°
2026-04-30 15:09 -57.16792 -65.61635 6265 ft 143 kts 156°
2026-04-30 15:10 -57.18514 -65.59806 6269 ft 143 kts 156°
2026-04-30 15:11 -57.21957 -65.56143 6272 ft 142 kts 156°
2026-04-30 15:11 -57.23670 -65.54317 6273 ft 142 kts 156°
2026-04-30 15:12 -57.26236 -65.51581 6269 ft 142 kts 156°
2026-04-30 15:13 -57.27930 -65.49769 6272 ft 140 kts 156°
2026-04-30 15:14 -57.31334 -65.46127 6267 ft 142 kts 156°
2026-04-30 15:14 -57.33890 -65.43385 6267 ft 141 kts 156°
2026-04-30 15:16 -57.38121 -65.38839 6265 ft 141 kts 156°
2026-04-30 15:17 -57.41512 -65.35188 6261 ft 141 kts 156°
2026-04-30 15:18 -57.45754 -65.30607 6261 ft 141 kts 156°
2026-04-30 15:19 -57.48255 -65.27900 6257 ft 139 kts 155°
2026-04-30 17:39 -61.03597 -60.92462 6256 ft 137 kts 145°
2026-04-30 17:41 -61.09888 -60.83694 6263 ft 136 kts 145°
2026-04-30 17:42 -61.11460 -60.81496 6271 ft 136 kts 145°
2026-04-30 17:42 -61.13807 -60.78210 6265 ft 136 kts 145°
2026-04-30 17:43 -61.15384 -60.75998 6261 ft 137 kts 145°
2026-04-30 17:44 -61.17745 -60.72682 6262 ft 136 kts 145°
2026-04-30 17:44 -61.20110 -60.69356 6264 ft 138 kts 145°
2026-04-30 17:46 -61.23874 -60.63232 6270 ft 137 kts 141°
2026-04-30 17:47 -61.26868 -60.58247 6268 ft 138 kts 141°
2026-04-30 17:48 -61.29858 -60.53256 6261 ft 138 kts 141°
2026-04-30 17:48 -61.32101 -60.49504 6256 ft 139 kts 141°
2026-04-30 17:49 -61.35088 -60.44497 6260 ft 138 kts 141°
2026-04-30 17:50 -61.38081 -60.39465 6272 ft 138 kts 141°
2026-04-30 17:51 -61.40298 -60.35730 6268 ft 137 kts 141°
2026-04-30 17:52 -61.42534 -60.31957 6271 ft 139 kts 141°
2026-04-30 17:53 -61.46007 -60.26083 6273 ft 137 kts 141°
2026-04-30 17:54 -61.48984 -60.21031 6276 ft 138 kts 141°
2026-04-30 17:55 -61.51948 -60.15991 6279 ft 137 kts 141°
2026-04-30 17:56 -61.54918 -60.10927 6277 ft 137 kts 141°
2026-04-30 17:57 -61.57132 -60.07142 6285 ft 137 kts 141°
2026-04-30 17:58 -61.59365 -60.03320 6278 ft 138 kts 141°
2026-04-30 17:59 -61.62321 -59.98249 6282 ft 137 kts 141°
2026-04-30 18:00 -61.65282 -59.93155 6284 ft 138 kts 141°
2026-04-30 18:00 -61.67487 -59.89353 6277 ft 137 kts 140°
2026-04-30 18:01 -61.68966 -59.86797 6274 ft 140 kts 140°
2026-04-30 18:02 -61.71202 -59.82932 6282 ft 136 kts 140°
2026-04-30 18:02 -61.73391 -59.79137 6276 ft 137 kts 140°
2026-04-30 18:03 -61.75617 -59.75268 6277 ft 138 kts 140°
2026-04-30 18:04 -61.77820 -59.71440 6290 ft 137 kts 140°
2026-04-30 18:05 -61.80781 -59.66276 6290 ft 138 kts 140°
2026-04-30 18:06 -61.83727 -59.61124 6292 ft 137 kts 140°
2026-04-30 18:07 -61.86594 -59.56101 6632 ft 126 kts 140°
2026-04-30 18:08 -61.88631 -59.52523 6745 ft 132 kts 140°
2026-04-30 18:09 -61.91532 -59.47419 6751 ft 136 kts 139°
2026-04-30 18:10 -61.94880 -59.44042 6754 ft 144 kts 173°
2026-04-30 18:11 -61.98994 -59.44803 6764 ft 151 kts 177°
2026-04-30 18:11 -62.02085 -59.45414 6761 ft 147 kts 178°
2026-04-30 18:12 -62.05140 -59.46018 6761 ft 147 kts 178°
2026-04-30 18:13 -62.07130 -59.46104 6509 ft 138 kts 161°
2026-04-30 18:13 -62.09308 -59.43427 5890 ft 137 kts 131°
2026-04-30 18:14 -62.10363 -59.39286 5746 ft 137 kts 118°
2026-04-30 18:15 -62.11570 -59.33804 5754 ft 136 kts 119°
2026-04-30 18:15 -62.12875 -59.28483 5462 ft 133 kts 121°
2026-04-30 18:16 -62.13701 -59.25095 4971 ft 127 kts 121°
2026-04-30 18:16 -62.14527 -59.21704 4365 ft 129 kts 121°
2026-04-30 18:17 -62.14930 -59.19990 4063 ft 127 kts 112°
2026-04-30 18:17 -62.15062 -59.18110 3782 ft 125 kts 110°
2026-04-30 18:17 -62.15641 -59.14943 3451 ft 112 kts 118°
2026-04-30 18:18 -62.15953 -59.13414 3249 ft 111 kts 118°
2026-04-30 18:18 -62.16248 -59.11995 3230 ft 97 kts 118°
2026-04-30 18:18 -62.16511 -59.10745 3209 ft 89 kts 118°
2026-04-30 18:18 -62.16768 -59.09543 3122 ft 85 kts 119°
2026-04-30 18:19 -62.17012 -59.08396 3008 ft 86 kts 119°
2026-04-30 18:19 -62.17251 -59.07274 2860 ft 78 kts 120°
2026-04-30 18:19 -62.17483 -59.06196 2488 ft 82 kts 120°
2026-04-30 18:19 -62.17720 -59.05087 2133 ft 83 kts 117°
2026-04-30 18:20 -62.17952 -59.03994 1847 ft 79 kts 116°
2026-04-30 18:20 -62.18204 -59.02860 1296 ft 91 kts 115°
2026-04-30 18:20 -62.18159 -59.01377 756 ft 112 kts 70°
2026-04-30 18:20 -62.17502 -59.00491 609 ft 130 kts 16°
2026-04-30 18:21 -62.16727 -59.01773 718 ft 166 kts 290°
2026-04-30 18:21 -62.16802 -59.04232 549 ft 151 kts 237°
2026-04-30 18:21 -62.17409 -59.05567 708 ft 114 kts 175°
2026-04-30 18:21 -62.17876 -59.04794 752 ft 105 kts 103°
2026-04-30 18:22 -62.17960 -59.03203 654 ft 99 kts 115°
2026-04-30 18:22 -62.18637 -59.00375 219 ft 111 kts 118°
2026-04-30 18:22 -62.19150 -58.98539 689 ft 153 kts 122°
2026-04-30 18:23 -62.19852 -58.96888 479 ft 156 kts 149°
2026-04-30 18:23 -62.20936 -58.96743 534 ft 153 kts 179°
2026-04-30 18:23 -62.21987 -58.97083 499 ft 150 kts 176°
2026-04-30 18:23 -62.23010 -58.97296 506 ft 148 kts 173°
2026-04-30 18:24 -62.24348 -59.00256 343 ft 161 kts 263°
2026-04-30 18:24 -62.24053 -59.02591 286 ft 167 kts 291°
2026-04-30 18:24 -62.23692 -59.04028 300 ft 166 kts 307°
2026-04-30 18:25 -62.22826 -59.05631 298 ft 166 kts 339°
2026-04-30 18:25 -62.20614 -59.08022 309 ft 188 kts 341°
2026-04-30 18:25 -62.19406 -59.08916 311 ft 178 kts
2026-04-30 18:26 -62.17282 -59.08483 311 ft 137 kts 33°
2026-04-30 18:26 -62.16315 -59.08266 291 ft 153 kts 353°
2026-04-30 18:26 -62.15525 -59.09768 296 ft 156 kts 291°
2026-04-30 18:27 -62.15635 -59.13507 298 ft 102 kts 190°
2026-04-30 18:27 -62.16192 -59.13236 318 ft 88 kts 122°
2026-04-30 18:28 -62.16549 -59.10503 321 ft 101 kts 118°
2026-04-30 18:28 -62.16857 -59.09120 315 ft 105 kts 117°
2026-04-30 18:28 -62.17430 -59.06298 309 ft 102 kts 117°
2026-04-30 18:29 -62.17757 -59.04944 306 ft 101 kts 120°
2026-04-30 18:29 -62.18521 -59.00818 180 ft 97 kts 121°